Regional Weather Roundup
Issued by NWS

Home | Current Version | Previous Version | Graphics & Text | Print | Product List | Glossary On
Versions: 1 2 3 4 5 6 7 8 9 10 11 12 13 14 15 16 17 18 19 20 21 22 23 24 25 26 27 28 29 30 31 32 33 34 35 36 37 38 39 40 41 42 43 44 45 46 47 48 49 50
000
ASUS43 KDTX 252210
RWRMI
MICHIGAN HOURLY REGIONAL WEATHER ROUNDUP
NATIONAL WEATHER SERVICE DETROIT/PONTIAC MI
500 PM EST TUE NOV 25 2014

NOTE: "FAIR" INDICATES FEW OR NO CLOUDS BELOW 12,000 FEET WITH NO
SIGNIFICANT WEATHER AND/OR OBSTRUCTION TO VISIBILITY.

MIZ047>049-052>055-059>063-066>070-074>076-081>083-252300-
SOUTHEAST LOWER MICHIGAN

CITY           SKY/WX    TMP DP  RH WIND       PRES   REMARKS
ADRIAN         CLOUDY    28  21  75 W9        30.14R
ALMA           CLOUDY    31  23  73 W12       30.08R
ANN ARBOR      CLOUDY    30  21  69 W12       30.10R
BAD AXE        CLOUDY    32  26  78 W13       30.04R
DETROIT CITY   CLOUDY    33  21  61 W10G17    30.11R
DETROIT        CLOUDY    31  22  69 SW12      30.12R
FLINT          CLOUDY    33  24  69 W10       30.08R
GROSSE ILE     CLOUDY    30  23  74 W10G16    30.11R
HILLSDALE      CLOUDY    28  22  79 W8        30.10R
HOWELL         CLOUDY    30  23  77 W13       30.08R

CITY           SKY/WX    TMP DP  RH WIND       PRES   REMARKS
JACKSON        CLOUDY    28  22  78 W7        30.10R
LAMBERTVILLE   CLOUDY    32  23  69 W9        30.13S
LANSING        FLURRIES  30  21  69 W14G21    30.09R
LAPEER         NOT AVBL
MASON          CLOUDY    31  23  74 SW8       30.09R
MONROE         CLOUDY    30  23  74 W13       30.12R
MT. CLEMENS    CLOUDY    32  23  68 W13G18    30.07R
PONTIAC        CLOUDY    30  22  72 W12       30.07R
PORT HOPE        N/A     33  23  66 W9G16     30.01R
PORT HURON     CLOUDY    32  25  74 SW7       30.09R
TRI CITIES     CLOUDY    33  23  66 W13       30.07R
YPSILANTI      CLOUDY    33  22  63 SW12      30.11R
$$
MIZ043>046-050>051-056>058-064>065-071>073-077>080-252300-
SOUTHWEST LOWER MICHIGAN

CITY           SKY/WX    TMP DP  RH WIND       PRES   REMARKS
BATTLE CREEK   CLOUDY    30  20  66 W8        30.11R
BENTON HARBOR  CLOUDY    28  20  71 W8        30.13R
BIG RAPIDS     CLOUDY    28  25  86 W8        30.05R
COLDWATER      CLOUDY    29  23  80 W8        30.12R
HOLLAND        CLOUDY    31  22  69 W12       30.12R
GRAND RAPIDS   FLURRIES  30  23  75 W13       30.10R
KALAMAZOO      CLOUDY    29  20  69 W9        30.12R
MARSHALL       CLOUDY    28  21  77 W13       30.10R
MUSKEGON       CLOUDY    30  21  69 W8        30.11R
$$
MIZ016>042-252300-
NORTHERN LOWER MICHIGAN

CITY           SKY/WX    TMP DP  RH WIND       PRES   REMARKS
ALPENA         CLOUDY    28  23  81 NW3       30.00R
BEAVER ISLAND  CLOUDY    29  21  71 W7        30.02R
BELLAIRE       CLOUDY    30  23  75 CALM      30.03R
CADILLAC       CLOUDY    26  22  85 W7        30.01R
CHARLEVOIX     CLOUDY    29  22  75 W13       30.04R
FRANKFORT      CLOUDY    28  23  81 W8        30.06R
GAYLORD        CLOUDY    26  21  81 W7        29.97R
GRAYLING       CLOUDY    28  25  87 W6        30.01R
HARBOR SPRINGS CLOUDY    28  24  82 NW6       30.00R
HOUGHTON LAKE  CLOUDY    28  22  78 W9        30.02R
MANISTEE       CLOUDY    28  21  74 W6        30.07R
OSCODA         CLOUDY    31  26  81 W9        30.01R
PELLSTON       CLOUDY    28  20  71 NW9       30.00R
TRAVERSE CITY  FLURRIES  29  22  75 W7        30.04R
$$
MIZ007>008-015-252300-
EASTERN UPPER MICHIGAN

CITY           SKY/WX    TMP DP  RH WIND       PRES   REMARKS
KINROSS        CLOUDY    27  25  93 W8        29.96R
MACKINAC ISLAN MOCLDY    28  24  86 NW8G18    29.98R
NEWBERRY       CLOUDY    24  17  74 NW5       29.98R
S. S. MARIE    FLURRIES  26  22  84 NW5       29.94F
$$
MIZ004>006-011>014-085-252300-
CENTRAL UPPER MICHIGAN

CITY           SKY/WX    TMP DP  RH WIND       PRES   REMARKS
MANISTIQUE     PTCLDY    24  19  80 W5        30.02R
ESCANABA       MOCLDY    25  12  58 N6        30.03R
MENOMINEE      CLOUDY    27  16  63 W6        30.04R
SAWYER-GWINN   CLEAR     21  12  68 CALM      29.97R
$$
MIZ001>003-009>011-084-252300-
WESTERN UPPER MICHIGAN

CITY           SKY/WX    TMP DP  RH WIND       PRES   REMARKS
IRON MOUNTAIN  PTCLDY    22  10  60 W5        29.99R
HOUGHTON       CLOUDY    20  11  68 W3        29.97R
COPPER HARBOR    N/A     22  11  62 VRB3      30.00R
IRONWOOD       CLEAR     19  12  73 SW5       29.96R
$$

ABBREVIATIONS USED IN REMARKS
   TC - TEMPERATURE IN CELSIUS
  WCI - WIND CHILL INDEX
   HX - HEAT INDEX
  VSB - VISIBILITY




USA.gov is the U.S. government's official web portal to all federal, state and local government web resources and services.